Hourly Data Report for October 01, 2015

All times are specified in Local Standard Time (LST). Add 1 hour to adjust for Daylight Saving Time where and when it is observed.

EUREKA CLIMATE
NUNAVUT

79°59'21.000" N
85°56'02.000" W
10.00 m
2401199
71613
NEK

Download Data

Hourly Data (October 2015)
Hourly Data Report for October 1, 2015
Temp Definition
°C
Dew Point Temp Definition
°C
Rel Hum Definition
%
Wind Dir Definition
10's deg

Wind Spd Definition
km/h
Visibility Definition
km
Stn Press Definition
kPa
Hmdx Definition


Wind Chill Definition


Weather Definition


TIME
00:00 -5.2 -5.6 97 15 37   99.86   -14 LegendNANA
01:00 -5.0 -5.5 97 15 42   99.80   -14 LegendNANA
02:00 -4.5 -5.1 96 15 43   99.73   -14 LegendNANA
03:00 -4.3 -4.8 96 16 41   99.68   -13 LegendNANA
04:00 -4.0 -4.7 95 16 43   99.62   -13 LegendNANA
05:00 -3.8 -4.5 95 16 37   99.61   -12 LegendNANA
06:00 -3.4 -3.9 96 15 45   99.50   -12 LegendNANA
07:00 -3.1 -3.7 95 15 40   99.46   -12 LegendNANA
08:00 -2.7 -3.4 94 15 42   99.39   -11 LegendNANA
09:00 -2.8 -3.7 94 12 34   99.34   -11 LegendNANA
10:00 -2.2 -2.4 99 14 43   99.27   -11 LegendNANA
11:00 -2.8 -3.2 98 13 30   99.21   -10 LegendNANA
12:00 -2.2 -4.0 88 13 28   99.11   -9 LegendNANA
13:00 -2.2 -4.3 85 13 32   99.03   -10 LegendNANA
14:00 -2.0 -4.2 85 12 33   98.97   -9 LegendNANA
15:00 -2.3 -4.0 88 12 30   98.88   -9 LegendNANA
16:00 -1.8 -3.7 87 12 31   98.78   -9 LegendNANA
17:00 -2.1 -2.4 97 13 24   98.72   -8 LegendNANA
18:00 -1.9 -1.9 100 13 28   98.67   -9 LegendNANA
19:00 -1.4 -1.8 97 14 26   98.63   -8 LegendNANA
20:00 -1.4 -2.2 94 13 29   98.61   -8 LegendNANA
21:00 -2.0 -2.0 100 13 18   98.60   -7 LegendNANA
22:00 -1.8 -2.1 98 14 20   98.53   -8 LegendNANA
23:00 -0.9 -3.4 83 15 22   98.55   -7 LegendNANA

Notes on Data Quality.

Legend

  • E = Estimated
  • M = Missing
  • NA = Not Available
  • ‡ = Partner data that is not subject to review by the National Climate Archives
Date modified: